Time,TemperatureF,DewpointF,PressureIn,WindDirection,WindDirectionDegrees,WindSpeedMPH,WindSpeedGustMPH,Humidity,HourlyPrecipIn,Conditions,Clouds,dailyrainin,SoftwareType,DateUTC
2013-07-03 00:05:00,82.8,71.6,29.99,SSE,161,1.0,14.0,69,0.00,,,0.00,Wunderground v.1.15,2013-07-03 04:05:00,
2013-07-03 00:10:00,82.8,72.0,29.99,SSE,162,3.0,3.0,70,0.00,,,0.00,Wunderground v.1.15,2013-07-03 04:10:00,
2013-07-03 00:15:00,82.7,71.5,29.99,SSE,165,4.0,4.0,69,0.00,,,0.00,Wunderground v.1.15,2013-07-03 04:15:00,
2013-07-03 00:20:00,82.7,71.5,29.99,SSE,163,4.0,14.0,69,0.00,,,0.00,Wunderground v.1.15,2013-07-03 04:20:00,
2013-07-03 00:25:00,82.7,71.5,29.99,SSE,166,4.0,14.0,69,0.00,,,0.00,Wunderground v.1.15,2013-07-03 04:25:00,
2013-07-03 00:30:00,82.7,71.9,29.99,SSE,161,4.0,4.0,70,0.00,,,0.00,Wunderground v.1.15,2013-07-03 04:30:00,
2013-07-03 00:35:00,82.5,71.7,29.99,SSE,163,3.0,14.0,70,0.00,,,0.00,Wunderground v.1.15,2013-07-03 04:35:00,
2013-07-03 00:40:00,82.5,72.1,29.99,SSE,161,3.0,3.0,71,0.00,,,0.00,Wunderground v.1.15,2013-07-03 04:40:00,
2013-07-03 00:45:00,82.5,72.6,29.99,SSE,160,3.0,14.0,72,0.00,,,0.00,Wunderground v.1.15,2013-07-03 04:45:00,
2013-07-03 00:50:00,82.5,72.1,29.99,SSE,161,2.0,14.0,71,0.00,,,0.00,Wunderground v.1.15,2013-07-03 04:50:00,
2013-07-03 00:55:00,82.5,72.1,29.99,SSE,163,2.0,14.0,71,0.00,,,0.00,Wunderground v.1.15,2013-07-03 04:55:00,
2013-07-03 01:00:00,82.5,71.7,29.99,SSE,163,1.0,1.0,70,0.00,,,0.00,Wunderground v.1.15,2013-07-03 05:00:00,
2013-07-03 01:05:00,82.5,72.1,29.99,SSE,164,0.0,14.0,71,0.00,,,0.00,Wunderground v.1.15,2013-07-03 05:05:00,
2013-07-03 01:10:00,82.4,72.5,29.99,SSE,164,0.0,14.0,72,0.00,,,0.00,Wunderground v.1.15,2013-07-03 05:10:00,
2013-07-03 01:15:00,82.5,72.6,29.99,SSE,165,0.0,14.0,72,0.00,,,0.00,Wunderground v.1.15,2013-07-03 05:15:00,
2013-07-03 01:20:00,82.6,73.5,29.99,SSE,165,0.0,14.0,74,0.00,,,0.00,Wunderground v.1.15,2013-07-03 05:20:00,
2013-07-03 01:25:00,82.6,73.5,29.98,SSE,164,0.0,14.0,74,0.00,,,0.00,Wunderground v.1.15,2013-07-03 05:25:00,
2013-07-03 01:35:00,82.5,74.2,29.98,SSE,164,0.0,14.0,76,0.00,,,0.00,Wunderground v.1.15,2013-07-03 05:35:00,
2013-07-03 01:40:00,82.3,74.0,29.98,SSE,164,0.0,14.0,76,0.00,,,0.00,Wunderground v.1.15,2013-07-03 05:40:00,
2013-07-03 01:45:00,82.2,74.3,29.98,SSE,164,0.0,14.0,77,0.00,,,0.00,Wunderground v.1.15,2013-07-03 05:45:00,
2013-07-03 01:50:00,82.1,74.2,29.98,SSE,164,0.0,14.0,77,0.00,,,0.00,Wunderground v.1.15,2013-07-03 05:50:00,
2013-07-03 02:05:00,81.8,73.9,29.98,SSE,164,0.0,14.0,77,0.00,,,0.00,Wunderground v.1.15,2013-07-03 06:05:00,
2013-07-03 02:10:00,81.8,73.9,29.97,SSE,161,0.0,14.0,77,0.00,,,0.00,Wunderground v.1.15,2013-07-03 06:10:00,
2013-07-03 02:15:00,81.8,74.3,29.98,SSE,161,0.0,14.0,78,0.00,,,0.00,Wunderground v.1.15,2013-07-03 06:15:00,
2013-07-03 02:20:00,81.8,74.3,29.98,SSE,161,0.0,14.0,78,0.00,,,0.00,Wunderground v.1.15,2013-07-03 06:20:00,
2013-07-03 02:25:00,81.7,74.2,29.97,SSE,161,0.0,14.0,78,0.00,,,0.00,Wunderground v.1.15,2013-07-03 06:25:00,
2013-07-03 02:30:00,81.8,74.3,29.97,SSE,161,0.0,14.0,78,0.00,,,0.00,Wunderground v.1.15,2013-07-03 06:30:00,
2013-07-03 02:35:00,81.9,74.0,29.97,SSE,161,0.0,14.0,77,0.00,,,0.00,Wunderground v.1.15,2013-07-03 06:35:00,
2013-07-03 02:45:00,81.9,74.0,29.97,SSE,161,0.0,14.0,77,0.00,,,0.00,Wunderground v.1.15,2013-07-03 06:45:00,
2013-07-03 02:50:00,81.9,74.0,29.96,SSE,161,0.0,14.0,77,0.00,,,0.00,Wunderground v.1.15,2013-07-03 06:50:00,
2013-07-03 02:55:00,82.0,74.5,29.97,SSE,161,0.0,14.0,78,0.00,,,0.00,Wunderground v.1.15,2013-07-03 06:55:00,
2013-07-03 03:10:00,82.0,74.5,29.96,East,98,0.0,14.0,78,0.00,,,0.00,Wunderground v.1.15,2013-07-03 07:10:00,
2013-07-03 03:20:00,81.9,74.4,29.96,ESE,107,0.0,14.0,78,0.00,,,0.00,Wunderground v.1.15,2013-07-03 07:20:00,
2013-07-03 03:25:00,80.9,73.4,29.95,East,98,4.0,14.0,78,0.00,,,0.00,Wunderground v.1.15,2013-07-03 07:25:00,
2013-07-03 03:40:00,80.4,70.9,29.96,SE,130,5.0,5.0,73,0.00,,,0.00,Wunderground v.1.15,2013-07-03 07:40:00,
2013-07-03 03:45:00,80.6,71.1,29.96,SE,129,3.0,14.0,73,0.00,,,0.00,Wunderground v.1.15,2013-07-03 07:45:00,
2013-07-03 03:50:00,80.8,70.9,29.95,ESE,121,4.0,14.0,72,0.00,,,0.00,Wunderground v.1.15,2013-07-03 07:50:00,
2013-07-03 03:55:00,80.7,71.2,29.95,ESE,111,5.0,14.0,73,0.00,,,0.00,Wunderground v.1.15,2013-07-03 07:55:00,
2013-07-03 04:05:00,80.7,72.0,29.95,SE,126,1.0,14.0,75,0.00,,,0.00,Wunderground v.1.15,2013-07-03 08:05:00,
2013-07-03 04:10:00,80.7,71.6,29.95,SE,135,0.0,14.0,74,0.00,,,0.00,Wunderground v.1.15,2013-07-03 08:10:00,
2013-07-03 04:25:00,80.8,73.3,29.95,SE,127,0.0,14.0,78,0.00,,,0.00,Wunderground v.1.15,2013-07-03 08:25:00,
2013-07-03 04:30:00,80.9,73.8,29.95,SE,127,0.0,14.0,79,0.00,,,0.00,Wunderground v.1.15,2013-07-03 08:30:00,
2013-07-03 04:35:00,80.9,73.8,29.95,East,98,1.0,14.0,79,0.00,,,0.00,Wunderground v.1.15,2013-07-03 08:35:00,
2013-07-03 04:40:00,81.0,74.6,29.95,East,101,1.0,1.0,81,0.00,,,0.00,Wunderground v.1.15,2013-07-03 08:40:00,
2013-07-03 04:50:00,80.3,73.9,29.95,WNW,297,2.0,2.0,81,0.00,,,0.00,Wunderground v.1.15,2013-07-03 08:50:00,
2013-07-03 04:55:00,80.1,73.7,29.95,West,279,2.0,14.0,81,0.00,,,0.00,Wunderground v.1.15,2013-07-03 08:55:00,
2013-07-03 05:00:00,80.0,74.0,29.95,NW,311,2.0,2.0,82,0.00,,,0.00,Wunderground v.1.15,2013-07-03 09:00:00,
2013-07-03 05:05:00,79.9,73.9,29.95,WNW,297,1.0,14.0,82,0.00,,,0.00,Wunderground v.1.15,2013-07-03 09:05:00,
2013-07-03 05:15:00,79.9,74.3,29.95,NNW,336,1.0,14.0,83,0.00,,,0.00,Wunderground v.1.15,2013-07-03 09:15:00,
2013-07-03 05:20:00,79.7,74.1,29.95,NW,318,1.0,1.0,83,0.00,,,0.00,Wunderground v.1.15,2013-07-03 09:20:00,
2013-07-03 05:25:00,79.6,74.3,29.95,NW,321,1.0,14.0,84,0.00,,,0.00,Wunderground v.1.15,2013-07-03 09:25:00,
2013-07-03 05:35:00,79.6,74.3,29.96,NNW,333,1.0,14.0,84,0.00,,,0.00,Wunderground v.1.15,2013-07-03 09:35:00,
2013-07-03 05:40:00,79.6,74.3,29.96,North,5,2.0,2.0,84,0.00,,,0.00,Wunderground v.1.15,2013-07-03 09:40:00,
2013-07-03 05:45:00,79.4,74.1,29.96,North,355,2.0,14.0,84,0.00,,,0.00,Wunderground v.1.15,2013-07-03 09:45:00,
2013-07-03 05:50:00,79.6,74.3,29.96,NNW,329,2.0,2.0,84,0.00,,,0.00,Wunderground v.1.15,2013-07-03 09:50:00,
2013-07-03 05:55:00,79.7,74.4,29.96,North,355,1.0,14.0,84,0.00,,,0.00,Wunderground v.1.15,2013-07-03 09:55:00,
2013-07-03 06:00:00,79.7,74.4,29.96,North,355,1.0,1.0,84,0.00,,,0.00,Wunderground v.1.15,2013-07-03 10:00:00,
2013-07-03 06:05:00,79.8,74.5,29.96,North,351,1.0,3.0,84,0.00,,,0.00,Wunderground v.1.15,2013-07-03 10:05:00,
2013-07-03 06:10:00,79.9,74.6,29.96,NNW,348,1.0,1.0,84,0.00,,,0.00,Wunderground v.1.15,2013-07-03 10:10:00,
2013-07-03 06:25:00,79.6,75.0,29.97,North,360,0.0,14.0,86,0.00,,,0.00,Wunderground v.1.15,2013-07-03 10:25:00,
2013-07-03 06:35:00,79.7,75.5,29.97,North,9,4.0,14.0,87,0.00,,,0.00,Wunderground v.1.15,2013-07-03 10:35:00,
2013-07-03 06:40:00,79.5,74.9,29.97,North,5,2.0,2.0,86,0.00,,,0.00,Wunderground v.1.15,2013-07-03 10:40:00,
2013-07-03 06:50:00,79.6,75.4,29.97,NNW,348,0.0,14.0,87,0.00,,,0.00,Wunderground v.1.15,2013-07-03 10:50:00,
2013-07-03 06:55:00,79.7,75.5,29.97,NW,319,0.0,14.0,87,0.00,,,0.00,Wunderground v.1.15,2013-07-03 10:55:00,
2013-07-03 07:00:00,79.6,75.4,29.97,WNW,302,0.0,14.0,87,0.00,,,0.00,Wunderground v.1.15,2013-07-03 11:00:00,
2013-07-03 07:05:00,79.6,75.4,29.97,NNW,331,1.0,14.0,87,0.00,,,0.00,Wunderground v.1.15,2013-07-03 11:05:00,
2013-07-03 07:10:00,79.8,75.6,29.98,North,355,1.0,1.0,87,0.00,,,0.00,Wunderground v.1.15,2013-07-03 11:10:00,
2013-07-03 07:20:00,80.3,76.1,29.97,NE,53,2.0,14.0,87,0.00,,,0.00,Wunderground v.1.15,2013-07-03 11:20:00,
2013-07-03 07:25:00,80.6,76.7,29.97,East,92,5.0,14.0,88,0.00,,,0.00,Wunderground v.1.15,2013-07-03 11:25:00,
2013-07-03 07:30:00,80.7,76.8,29.98,ENE,78,10.0,14.0,88,0.00,,,0.00,Wunderground v.1.15,2013-07-03 11:30:00,
2013-07-03 07:35:00,80.5,76.6,29.98,ENE,71,13.0,14.0,88,0.00,,,0.00,Wunderground v.1.15,2013-07-03 11:35:00,
2013-07-03 07:40:00,80.3,76.4,29.98,ENE,78,14.0,14.0,88,0.00,,,0.00,Wunderground v.1.15,2013-07-03 11:40:00,
2013-07-03 07:45:00,80.1,76.2,29.98,East,91,14.0,14.0,88,0.00,,,0.00,Wunderground v.1.15,2013-07-03 11:45:00,
2013-07-03 07:50:00,80.0,76.1,29.98,East,81,13.0,14.0,88,0.00,,,0.00,Wunderground v.1.15,2013-07-03 11:50:00,
2013-07-03 07:55:00,80.1,76.6,29.98,ENE,69,13.0,15.0,89,0.00,,,0.00,Wunderground v.1.15,2013-07-03 11:55:00,
2013-07-03 08:00:00,80.3,76.8,29.98,ENE,67,14.0,14.0,89,0.00,,,0.00,Wunderground v.1.15,2013-07-03 12:00:00,
2013-07-03 08:05:00,80.7,76.8,29.98,ENE,57,14.0,15.0,88,0.00,,,0.00,Wunderground v.1.15,2013-07-03 12:05:00,
2013-07-03 08:10:00,80.9,77.0,29.98,NE,53,15.0,17.0,88,0.00,,,0.00,Wunderground v.1.15,2013-07-03 12:10:00,
2013-07-03 08:15:00,80.9,77.0,29.98,NE,55,16.0,17.0,88,0.00,,,0.00,Wunderground v.1.15,2013-07-03 12:15:00,
2013-07-03 08:20:00,80.7,76.8,29.98,NE,52,17.0,17.0,88,0.00,,,0.00,Wunderground v.1.15,2013-07-03 12:20:00,
2013-07-03 08:25:00,80.9,77.0,29.98,NE,53,17.0,19.0,88,0.00,,,0.00,Wunderground v.1.15,2013-07-03 12:25:00,
2013-07-03 08:35:00,80.9,77.0,29.99,ENE,61,18.0,19.0,88,0.00,,,0.00,Wunderground v.1.15,2013-07-03 12:35:00,
2013-07-03 08:40:00,81.0,77.1,29.99,ENE,61,18.0,18.0,88,0.00,,,0.00,Wunderground v.1.15,2013-07-03 12:40:00,
2013-07-03 08:45:00,81.1,76.9,29.99,NE,55,18.0,18.0,87,0.00,,,0.00,Wunderground v.1.15,2013-07-03 12:45:00,
2013-07-03 08:50:00,81.0,76.8,29.99,ENE,64,19.0,19.0,87,0.00,,,0.00,Wunderground v.1.15,2013-07-03 12:50:00,
2013-07-03 08:55:00,81.1,76.9,29.99,ENE,58,18.0,19.0,87,0.00,,,0.00,Wunderground v.1.15,2013-07-03 12:55:00,
2013-07-03 09:00:00,81.1,76.5,29.99,ENE,63,17.0,19.0,86,0.00,,,0.00,Wunderground v.1.15,2013-07-03 13:00:00,
2013-07-03 09:05:00,81.1,76.9,29.98,NE,54,19.0,20.0,87,0.00,,,0.00,Wunderground v.1.15,2013-07-03 13:05:00,
2013-07-03 09:10:00,81.1,76.9,29.98,ENE,68,20.0,20.0,87,0.00,,,0.00,Wunderground v.1.15,2013-07-03 13:10:00,
2013-07-03 09:20:00,80.9,76.7,29.98,ENE,57,21.0,21.0,87,0.00,,,0.00,Wunderground v.1.15,2013-07-03 13:20:00,
2013-07-03 09:25:00,80.9,77.0,29.98,ENE,59,20.0,21.0,88,0.00,,,0.00,Wunderground v.1.15,2013-07-03 13:25:00,
2013-07-03 09:30:00,80.5,76.6,29.99,ENE,72,20.0,20.0,88,0.00,,,0.00,Wunderground v.1.15,2013-07-03 13:30:00,
2013-07-03 09:35:00,80.6,76.7,29.99,ENE,61,19.0,20.0,88,0.00,,,0.00,Wunderground v.1.15,2013-07-03 13:35:00,
2013-07-03 09:40:00,80.8,76.9,30.00,ENE,58,18.0,18.0,88,0.00,,,0.00,Wunderground v.1.15,2013-07-03 13:40:00,
2013-07-03 09:50:00,80.8,76.2,30.00,NE,51,15.0,18.0,86,0.00,,,0.00,Wunderground v.1.15,2013-07-03 13:50:00,
2013-07-03 09:55:00,80.7,76.5,29.99,NE,56,16.0,18.0,87,0.00,,,0.00,Wunderground v.1.15,2013-07-03 13:55:00,
2013-07-03 10:10:00,81.0,77.1,29.99,ENE,63,18.0,18.0,88,0.00,,,0.00,Wunderground v.1.15,2013-07-03 14:10:00,
2013-07-03 10:20:00,80.8,76.2,30.00,ENE,57,17.0,17.0,86,0.00,,,0.00,Wunderground v.1.15,2013-07-03 14:20:00,
2013-07-03 10:25:00,80.8,76.2,30.01,NE,49,16.0,17.0,86,0.00,,,0.00,Wunderground v.1.15,2013-07-03 14:25:00,
2013-07-03 10:35:00,80.9,76.7,30.01,NE,53,13.0,14.0,87,0.00,,,0.00,Wunderground v.1.15,2013-07-03 14:35:00,
2013-07-03 10:40:00,80.9,76.3,30.01,NE,46,12.0,14.0,86,0.00,,,0.00,Wunderground v.1.15,2013-07-03 14:40:00,
2013-07-03 10:45:00,80.9,76.0,30.00,NE,45,11.0,14.0,85,0.00,,,0.00,Wunderground v.1.15,2013-07-03 14:45:00,
2013-07-03 10:50:00,81.1,76.5,30.00,NE,38,11.0,14.0,86,0.00,,,0.00,Wunderground v.1.15,2013-07-03 14:50:00,
2013-07-03 11:00:00,80.7,76.1,30.01,NE,44,12.0,12.0,86,0.00,,,0.00,Wunderground v.1.15,2013-07-03 15:00:00,
2013-07-03 11:05:00,80.7,76.5,30.01,NE,53,11.0,14.0,87,0.00,,,0.00,Wunderground v.1.15,2013-07-03 15:05:00,
2013-07-03 11:10:00,80.7,76.5,30.01,ENE,58,11.0,14.0,87,0.00,,,0.00,Wunderground v.1.15,2013-07-03 15:10:00,
2013-07-03 11:15:00,80.8,76.9,30.01,ENE,57,11.0,14.0,88,0.00,,,0.00,Wunderground v.1.15,2013-07-03 15:15:00,
2013-07-03 11:20:00,80.7,76.5,30.01,NE,42,11.0,11.0,87,0.00,,,0.00,Wunderground v.1.15,2013-07-03 15:20:00,
2013-07-03 11:30:00,80.7,76.5,30.01,NE,42,11.0,14.0,87,0.00,,,0.00,Wunderground v.1.15,2013-07-03 15:30:00,
2013-07-03 11:35:00,80.8,76.6,30.01,ENE,76,12.0,14.0,87,0.00,,,0.00,Wunderground v.1.15,2013-07-03 15:35:00,
2013-07-03 11:50:00,80.3,76.1,30.01,ENE,67,12.0,12.0,87,0.00,,,0.00,Wunderground v.1.15,2013-07-03 15:50:00,
2013-07-03 11:55:00,80.4,76.5,30.01,East,80,11.0,14.0,88,0.00,,,0.00,Wunderground v.1.15,2013-07-03 15:55:00,
2013-07-03 12:05:00,80.0,76.5,30.01,East,92,7.0,14.0,89,0.00,,,0.00,Wunderground v.1.15,2013-07-03 16:05:00,
2013-07-03 12:15:00,79.4,75.9,30.01,East,90,7.0,14.0,89,0.00,,,0.00,Wunderground v.1.15,2013-07-03 16:15:00,
2013-07-03 12:20:00,79.4,76.2,30.01,East,85,7.0,7.0,90,0.00,,,0.00,Wunderground v.1.15,2013-07-03 16:20:00,
2013-07-03 12:25:00,79.4,76.2,30.01,ENE,76,7.0,8.0,90,0.00,,,0.00,Wunderground v.1.15,2013-07-03 16:25:00,
2013-07-03 12:30:00,79.7,75.8,30.01,East,87,9.0,14.0,88,0.00,,,0.00,Wunderground v.1.15,2013-07-03 16:30:00,
2013-07-03 12:35:00,80.2,76.0,30.00,East,88,12.0,14.0,87,0.00,,,0.00,Wunderground v.1.15,2013-07-03 16:35:00,
2013-07-03 12:40:00,80.3,75.4,30.00,ENE,63,13.0,18.0,85,0.00,,,0.00,Wunderground v.1.15,2013-07-03 16:40:00,
2013-07-03 12:50:00,81.0,74.6,29.99,ENE,60,15.0,17.0,81,0.00,,,0.00,Wunderground v.1.15,2013-07-03 16:50:00,
2013-07-03 12:55:00,81.3,75.6,29.99,ENE,63,15.0,17.0,83,0.00,,,0.00,Wunderground v.1.15,2013-07-03 16:55:00,
2013-07-03 13:05:00,81.2,75.9,29.99,NE,55,14.0,15.0,84,0.00,,,0.00,Wunderground v.1.15,2013-07-03 17:05:00,
2013-07-03 13:10:00,81.2,75.5,29.99,NE,54,13.0,13.0,83,0.00,,,0.00,Wunderground v.1.15,2013-07-03 17:10:00,
2013-07-03 13:20:00,81.4,76.1,29.99,NE,56,12.0,12.0,84,0.00,,,0.00,Wunderground v.1.15,2013-07-03 17:20:00,
2013-07-03 13:25:00,81.5,75.8,29.99,ENE,63,12.0,14.0,83,0.00,,,0.00,Wunderground v.1.15,2013-07-03 17:25:00,
2013-07-03 13:30:00,81.6,76.3,29.99,NE,44,12.0,12.0,84,0.00,,,0.00,Wunderground v.1.15,2013-07-03 17:30:00,
2013-07-03 13:40:00,81.8,76.1,29.99,ENE,67,12.0,14.0,83,0.00,,,0.00,Wunderground v.1.15,2013-07-03 17:40:00,
2013-07-03 13:45:00,82.1,76.8,29.98,NE,48,12.0,14.0,84,0.00,,,0.00,Wunderground v.1.15,2013-07-03 17:45:00,
2013-07-03 13:50:00,82.2,76.5,29.98,ENE,73,12.0,12.0,83,0.00,,,0.00,Wunderground v.1.15,2013-07-03 17:50:00,
2013-07-03 13:55:00,82.1,76.1,29.98,ENE,58,10.0,14.0,82,0.00,,,0.00,Wunderground v.1.15,2013-07-03 17:55:00,
2013-07-03 14:05:00,82.5,75.7,29.98,ENE,64,8.0,14.0,80,0.00,,,0.00,Wunderground v.1.15,2013-07-03 18:05:00,
2013-07-03 14:20:00,82.8,76.7,29.98,East,93,4.0,14.0,82,0.00,,,0.00,Wunderground v.1.15,2013-07-03 18:20:00,
2013-07-03 14:30:00,81.7,76.7,29.98,SE,130,13.0,20.0,85,0.00,,,0.00,Wunderground v.1.15,2013-07-03 18:30:00,
2013-07-03 14:35:00,81.2,77.0,29.98,SE,134,16.0,20.0,87,0.00,,,0.00,Wunderground v.1.15,2013-07-03 18:35:00,
2013-07-03 14:40:00,80.8,76.6,29.99,SE,126,18.0,21.0,87,0.00,,,0.00,Wunderground v.1.15,2013-07-03 18:40:00,
2013-07-03 14:50:00,80.9,76.7,29.99,SE,127,19.0,19.0,87,0.00,,,0.00,Wunderground v.1.15,2013-07-03 18:50:00,
2013-07-03 14:55:00,80.7,76.5,29.99,ESE,108,20.0,20.0,87,0.00,,,0.00,Wunderground v.1.15,2013-07-03 18:55:00,
2013-07-03 15:05:00,80.5,76.6,29.98,ESE,108,20.0,21.0,88,0.00,,,0.00,Wunderground v.1.15,2013-07-03 19:05:00,
2013-07-03 15:10:00,81.0,77.1,29.98,SE,138,17.0,17.0,88,0.00,,,0.00,Wunderground v.1.15,2013-07-03 19:10:00,
2013-07-03 15:20:00,81.0,76.8,29.98,ESE,118,19.0,19.0,87,0.00,,,0.00,Wunderground v.1.15,2013-07-03 19:20:00,
2013-07-03 15:25:00,80.7,76.5,29.98,East,97,20.0,22.0,87,0.00,,,0.00,Wunderground v.1.15,2013-07-03 19:25:00,
2013-07-03 15:35:00,80.9,76.3,29.98,ESE,107,19.0,20.0,86,0.00,,,0.00,Wunderground v.1.15,2013-07-03 19:35:00,
2013-07-03 15:45:00,80.6,76.0,29.97,ESE,117,22.0,25.0,86,0.00,,,0.00,Wunderground v.1.15,2013-07-03 19:45:00,
2013-07-03 15:50:00,80.7,76.1,29.97,SE,124,20.0,20.0,86,0.00,,,0.00,Wunderground v.1.15,2013-07-03 19:50:00,
2013-07-03 15:55:00,80.7,75.8,29.97,SE,135,19.0,20.0,85,0.00,,,0.00,Wunderground v.1.15,2013-07-03 19:55:00,
2013-07-03 16:05:00,80.3,75.0,29.97,ESE,118,21.0,21.0,84,0.00,,,0.00,Wunderground v.1.15,2013-07-03 20:05:00,
2013-07-03 16:15:00,80.4,75.1,29.96,ESE,120,20.0,24.0,84,0.00,,,0.00,Wunderground v.1.15,2013-07-03 20:15:00,
2013-07-03 16:20:00,80.0,74.7,29.96,ESE,122,21.0,22.0,84,0.00,,,0.00,Wunderground v.1.15,2013-07-03 20:20:00,
2013-07-03 16:25:00,80.5,75.2,29.96,ESE,108,21.0,22.0,84,0.00,,,0.00,Wunderground v.1.15,2013-07-03 20:25:00,
2013-07-03 16:35:00,80.3,75.0,29.95,ESE,120,21.0,23.0,84,0.00,,,0.00,Wunderground v.1.15,2013-07-03 20:35:00,
2013-07-03 16:40:00,80.4,75.1,29.95,SE,134,23.0,23.0,84,0.00,,,0.00,Wunderground v.1.15,2013-07-03 20:40:00,
2013-07-03 16:50:00,80.6,74.6,29.94,ESE,108,20.0,20.0,82,0.00,,,0.00,Wunderground v.1.15,2013-07-03 20:50:00,
2013-07-03 16:55:00,80.9,76.0,29.94,ESE,109,20.0,20.0,85,0.00,,,0.00,Wunderground v.1.15,2013-07-03 20:55:00,
2013-07-03 17:05:00,80.5,75.9,29.94,ESE,115,18.0,19.0,86,0.00,,,0.00,Wunderground v.1.15,2013-07-03 21:05:00,
2013-07-03 17:10:00,80.5,75.9,29.94,ESE,122,18.0,18.0,86,0.00,,,0.00,Wunderground v.1.15,2013-07-03 21:10:00,
2013-07-03 17:20:00,80.4,75.8,29.94,ESE,110,18.0,20.0,86,0.00,,,0.00,Wunderground v.1.15,2013-07-03 21:20:00,
2013-07-03 17:25:00,80.3,75.7,29.94,SE,124,18.0,20.0,86,0.00,,,0.00,Wunderground v.1.15,2013-07-03 21:25:00,
2013-07-03 17:35:00,80.4,76.2,29.95,SE,130,16.0,17.0,87,0.00,,,0.00,Wunderground v.1.15,2013-07-03 21:35:00,
2013-07-03 17:40:00,80.3,76.4,29.95,ESE,113,16.0,16.0,88,0.00,,,0.00,Wunderground v.1.15,2013-07-03 21:40:00,
2013-07-03 17:45:00,80.3,76.4,29.95,ESE,116,17.0,20.0,88,0.00,,,0.00,Wunderground v.1.15,2013-07-03 21:45:00,
2013-07-03 17:50:00,80.2,76.0,29.95,ESE,108,16.0,16.0,87,0.00,,,0.00,Wunderground v.1.15,2013-07-03 21:50:00,
2013-07-03 17:55:00,80.0,75.8,29.95,ESE,111,16.0,16.0,87,0.00,,,0.00,Wunderground v.1.15,2013-07-03 21:55:00,
2013-07-03 18:15:00,80.6,76.4,29.94,ESE,123,17.0,21.0,87,0.00,,,0.00,Wunderground v.1.15,2013-07-03 22:15:00,
2013-07-03 18:20:00,80.7,76.5,29.94,ESE,103,17.0,17.0,87,0.00,,,0.00,Wunderground v.1.15,2013-07-03 22:20:00,
2013-07-03 18:30:00,80.7,76.1,29.94,ESE,120,19.0,19.0,86,0.00,,,0.00,Wunderground v.1.15,2013-07-03 22:30:00,
2013-07-03 18:35:00,80.5,75.9,29.94,ESE,118,18.0,21.0,86,0.00,,,0.00,Wunderground v.1.15,2013-07-03 22:35:00,
2013-07-03 18:40:00,80.4,75.8,29.94,ESE,121,18.0,18.0,86,0.00,,,0.00,Wunderground v.1.15,2013-07-03 22:40:00,
2013-07-03 18:50:00,80.5,76.3,29.94,SE,130,16.0,16.0,87,0.00,,,0.00,Wunderground v.1.15,2013-07-03 22:50:00,
2013-07-03 18:55:00,80.5,75.9,29.94,SE,129,16.0,16.0,86,0.00,,,0.00,Wunderground v.1.15,2013-07-03 22:55:00,
2013-07-03 19:05:00,80.2,76.0,29.94,SE,128,19.0,19.0,87,0.00,,,0.00,Wunderground v.1.15,2013-07-03 23:05:00,
2013-07-03 19:10:00,80.3,76.4,29.94,ESE,105,18.0,18.0,88,0.00,,,0.00,Wunderground v.1.15,2013-07-03 23:10:00,
2013-07-03 19:15:00,79.7,75.8,29.93,East,97,16.0,18.0,88,0.00,,,0.00,Wunderground v.1.15,2013-07-03 23:15:00,
2013-07-03 19:25:00,80.0,76.1,29.94,East,96,14.0,16.0,88,0.00,,,0.00,Wunderground v.1.15,2013-07-03 23:25:00,
2013-07-03 19:35:00,79.8,74.9,29.94,East,94,14.0,14.0,85,0.00,,,0.00,Wunderground v.1.15,2013-07-03 23:35:00,
2013-07-03 19:40:00,79.9,75.0,29.94,East,97,14.0,16.0,85,0.00,,,0.00,Wunderground v.1.15,2013-07-03 23:40:00,
2013-07-03 19:45:00,79.9,75.0,29.94,ESE,109,13.0,16.0,85,0.00,,,0.00,Wunderground v.1.15,2013-07-03 23:45:00,
2013-07-03 19:55:00,79.5,74.9,29.94,East,100,13.0,14.0,86,0.00,,,0.00,Wunderground v.1.15,2013-07-03 23:55:00,
2013-07-03 20:00:00,79.4,74.8,29.94,East,93,12.0,14.0,86,0.00,,,0.00,Wunderground v.1.15,2013-07-04 00:00:00,
2013-07-03 20:05:00,79.6,75.7,29.94,East,97,12.0,14.0,88,0.00,,,0.00,Wunderground v.1.15,2013-07-04 00:05:00,
2013-07-03 20:20:00,79.5,75.3,29.95,East,88,11.0,14.0,87,0.00,,,0.00,Wunderground v.1.15,2013-07-04 00:20:00,
2013-07-03 20:25:00,79.5,75.6,29.95,ENE,69,11.0,15.0,88,0.00,,,0.00,Wunderground v.1.15,2013-07-04 00:25:00,
2013-07-03 20:35:00,79.4,75.2,29.95,East,92,11.0,14.0,87,0.00,,,0.00,Wunderground v.1.15,2013-07-04 00:35:00,
2013-07-03 20:40:00,79.5,75.3,29.95,East,96,11.0,14.0,87,0.00,,,0.00,Wunderground v.1.15,2013-07-04 00:40:00,
2013-07-03 20:50:00,79.3,75.1,29.96,ESE,103,9.0,14.0,87,0.00,,,0.00,Wunderground v.1.15,2013-07-04 00:50:00,
2013-07-03 20:55:00,79.3,75.4,29.96,East,92,9.0,14.0,88,0.00,,,0.00,Wunderground v.1.15,2013-07-04 00:55:00,
2013-07-03 21:05:00,79.2,75.3,29.96,ESE,113,8.0,14.0,88,0.00,,,0.00,Wunderground v.1.15,2013-07-04 01:05:00,
2013-07-03 21:15:00,79.4,75.9,29.95,ENE,78,9.0,13.0,89,0.00,,,0.00,Wunderground v.1.15,2013-07-04 01:15:00,
2013-07-03 21:20:00,79.4,75.9,29.95,East,88,10.0,14.0,89,0.00,,,0.00,Wunderground v.1.15,2013-07-04 01:20:00,
2013-07-03 21:25:00,79.5,76.0,29.95,East,96,11.0,14.0,89,0.00,,,0.00,Wunderground v.1.15,2013-07-04 01:25:00,
2013-07-03 21:30:00,79.5,76.0,29.95,East,91,10.0,14.0,89,0.00,,,0.00,Wunderground v.1.15,2013-07-04 01:30:00,
2013-07-03 21:40:00,79.5,75.3,29.95,ESE,109,9.0,9.0,87,0.00,,,0.00,Wunderground v.1.15,2013-07-04 01:40:00,
2013-07-03 21:45:00,79.7,75.5,29.95,East,96,9.0,14.0,87,0.00,,,0.00,Wunderground v.1.15,2013-07-04 01:45:00,
2013-07-03 21:55:00,79.8,75.2,29.95,East,84,11.0,14.0,86,0.00,,,0.00,Wunderground v.1.15,2013-07-04 01:55:00,
2013-07-03 22:05:00,79.6,75.0,29.95,East,97,11.0,14.0,86,0.00,,,0.00,Wunderground v.1.15,2013-07-04 02:05:00,
2013-07-03 22:20:00,79.4,75.2,29.95,East,89,12.0,12.0,87,0.00,,,0.00,Wunderground v.1.15,2013-07-04 02:20:00,
2013-07-03 22:35:00,79.5,74.9,29.96,East,95,10.0,14.0,86,0.00,,,0.00,Wunderground v.1.15,2013-07-04 02:35:00,
2013-07-03 22:40:00,79.5,75.3,29.96,East,98,11.0,11.0,87,0.00,,,0.00,Wunderground v.1.15,2013-07-04 02:40:00,
2013-07-03 22:50:00,79.6,75.4,29.96,East,84,8.0,14.0,87,0.00,,,0.00,Wunderground v.1.15,2013-07-04 02:50:00,
2013-07-03 22:55:00,79.6,75.4,29.97,East,100,9.0,14.0,87,0.00,,,0.00,Wunderground v.1.15,2013-07-04 02:55:00,
2013-07-03 23:05:00,79.6,75.4,29.97,East,84,10.0,14.0,87,0.00,,,0.00,Wunderground v.1.15,2013-07-04 03:05:00,
2013-07-03 23:10:00,79.5,75.6,29.97,East,89,11.0,11.0,88,0.00,,,0.00,Wunderground v.1.15,2013-07-04 03:10:00,
2013-07-03 23:20:00,79.5,76.0,29.97,East,96,10.0,10.0,89,0.00,,,0.00,Wunderground v.1.15,2013-07-04 03:20:00,
2013-07-03 23:30:00,79.7,76.2,29.96,ENE,78,11.0,14.0,89,0.00,,,0.00,Wunderground v.1.15,2013-07-04 03:30:00,
2013-07-03 23:35:00,79.8,76.3,29.97,East,81,11.0,14.0,89,0.00,,,0.00,Wunderground v.1.15,2013-07-04 03:35:00,
2013-07-03 23:40:00,80.1,76.9,29.96,East,87,12.0,12.0,90,0.00,,,0.00,Wunderground v.1.15,2013-07-04 03:40:00,
2013-07-03 23:50:00,80.2,77.3,29.96,ENE,64,14.0,17.0,91,0.00,,,0.00,Wunderground v.1.15,2013-07-04 03:50:00,